, FL

(GMT )
Bonifay

Weather History for K1J0 - August, 2019

Change the Weather History Date:

Saturday, August 24, 2019

  Actual Average Record
Temperature  
Mean Temperature 84 °F -  
Max Temperature 96 °F - - ()
Min Temperature 73 °F - - ()
Cooling Degree Days 20    
Growing Degree Days 34 (Base 50)    
Moisture  
Dew Point 73 °F    
Average Humidity 79    
Maximum Humidity 97    
Minimum Humidity 41    
Precipitation  
Precipitation 0.00 in - - ()
Sea Level Pressure  
Sea Level Pressure 29.90 in    
Wind  
Wind Speed 1 mph (SE)    
Max Wind Speed 6 mph    
Max Gust Speed -    
Visibility 8 miles    
Events      
Averages and records for this station are not official NWS values.
T = Trace of Precipitation, MM = Missing Value Source: NWS Daily Summary

Daily Weather History Graph

Daily Weather History Graph

Search for Another Location

Airport or City:

Astronomy

Aug. 24, 2019 Rise Set
Actual Time 7:13 AM EDT 8:15 PM EDT
Civil Twilight 6:48 AM EDT 8:40 PM EDT
Nautical Twilight 6:19 AM EDT 9:09 PM EDT
Astronomical Twilight 5:48 AM EDT 9:39 PM EDT
Moon 1:14 AM EDT (8/24) 3:19 PM EDT (8/24)
Length of Visible Light 13h 51m
Length of Day
13h 01m
Last Quarter, 39% of the Moon is Illuminated
Aug 24
Last Quarter
Aug 30
New
Sep 5
First Quarter
Sep 14
Full
Sep 21
Last Quarter

Hourly Weather History & Observations

Time (EDT) Temp. Heat Index Dew Point Humidity Pressure Visibility Wind Dir Wind Speed Gust Speed Precip Events Conditions
12:58 AM 77.0 °F - 75.0 °F 94% 29.88 in 10.0 mi Calm Calm - N/A   Clear
1:58 AM 75.9 °F - 73.9 °F 94% 29.88 in 8.0 mi Calm Calm - N/A   Clear
2:58 AM 75.0 °F - 73.9 °F 96% 29.86 in 10.0 mi Calm Calm - N/A   Clear
3:08 AM 75.0 °F - 73.9 °F 96% 29.99 in 8.0 mi Calm Calm - N/A   Partly Cloudy
3:17 AM 75.0 °F - 73.0 °F 94% 29.98 in 9.0 mi Calm Calm - N/A   Mostly Cloudy
3:23 AM 75.0 °F - 73.0 °F 94% 29.98 in 9.0 mi Calm Calm - N/A   Scattered Clouds
3:58 AM 75.0 °F - 73.0 °F 94% 29.86 in 6.0 mi Calm Calm - N/A   Mostly Cloudy
4:07 AM 75.0 °F - 73.0 °F 94% 29.98 in 2.0 mi Calm Calm - N/A   Overcast
4:18 AM 75.0 °F - 73.0 °F 94% 29.98 in 3.0 mi Calm Calm - N/A   Overcast
4:57 AM 73.9 °F - 73.0 °F 97% 29.86 in 2.5 mi Calm Calm - N/A   Overcast
5:34 AM 73.0 °F - 72.0 °F 96% 29.98 in 1.0 mi Calm Calm - N/A   Mist
5:40 AM 73.0 °F - 72.0 °F 96% 29.98 in 1.8 mi Calm Calm - N/A   Partly Cloudy
5:44 AM 73.9 °F - 72.0 °F 93% 29.98 in 8.0 mi Calm Calm - N/A   Partly Cloudy
5:58 AM 73.9 °F - 72.0 °F 93% 29.87 in 10.0 mi Calm Calm - N/A   Clear
7:58 AM 73.9 °F - 73.0 °F 97% 29.90 in 10.0 mi Calm Calm - N/A   Clear
8:58 AM 77.0 °F - 73.9 °F 90% 29.92 in 10.0 mi Calm Calm - N/A   Clear
9:58 AM 84.0 °F 91.9 °F 75.0 °F 74% 29.92 in 10.0 mi Variable 3.5 mph - N/A   Clear
10:58 AM 89.1 °F 98.0 °F 73.9 °F 61% 29.92 in 10.0 mi Calm Calm - N/A   Clear
11:58 AM 91.0 °F 100.4 °F 73.9 °F 57% 29.91 in 10.0 mi ESE 4.6 mph - N/A   Partly Cloudy
12:58 PM 93.0 °F 100.1 °F 71.1 °F 49% 29.88 in 10.0 mi Variable 3.5 mph - N/A   Partly Cloudy
1:58 PM 93.2 °F 100.5 °F 71.6 °F 49% 29.99 in 10.0 mi Variable 3.5 mph - N/A   Partly Cloudy
2:58 PM 91.9 °F 97.4 °F 70.0 °F 48% 29.84 in 10.0 mi Calm Calm - N/A   Clear
3:58 PM 93.9 °F 100.3 °F 70.0 °F 46% 29.82 in 10.0 mi SE 5.8 mph - N/A   Partly Cloudy
4:58 PM 95.0 °F 100.7 °F 69.1 °F 43% 29.79 in 10.0 mi Variable 5.8 mph - N/A   Partly Cloudy
5:58 PM 96.1 °F 101.6 °F 69.1 °F 41% 29.79 in 10.0 mi Variable 3.5 mph - N/A   Clear
7:58 PM 87.1 °F 94.5 °F 73.0 °F 63% 29.81 in 10.0 mi Calm Calm - N/A   Clear
8:58 PM 84.0 °F 91.9 °F 75.0 °F 74% 29.83 in 10.0 mi SW 3.5 mph - N/A   Clear
9:58 PM 82.9 °F 90.8 °F 75.9 °F 79% 29.86 in 10.0 mi Calm Calm - N/A   Partly Cloudy
10:58 PM 80.1 °F 85.4 °F 75.9 °F 87% 29.87 in 10.0 mi Calm Calm - N/A   Clear
11:58 PM 80.1 °F 85.4 °F 75.9 °F 87% 29.89 in 10.0 mi NE 4.6 mph - N/A   Mostly Cloudy